sat.trackr.live / text

‹ back to catalog

STARLINK-6341

NORAD 56786 · 2023-078V

PAYLOAD ACTIVE UNKNOWN

§ Identity

Operator
Country
US
Launch date
2023-05-31
Launch site
AFWTR
Launch vehicle
Mass (kg)
RCS (m²)

Purposes: comms

External: N2YO · Heavens-Above · Gunter

§ Orbital elements

Epoch: 2026-09-20T22:00:03.000096Z

Period
95.54 min
Inclination
70.0005°
Eccentricity
0.0003057
Mean motion
15.07227343 rev/d
Perigee alt
542.6 km
Apogee alt
546.8 km
Semi-major
6,922.8 km
B*
3.4350e-4
RAAN
192.1584°
Arg perigee
227.9539°
Mean anomaly
294.4135°
Rev number
577

§ Raw data

STARLINK-63411 56786U 23078V   26263.91670139  .00005089  00000+0  34350-3 0  99962 56786  70.0005 192.1584 0003057 227.9539 294.4135 15.07227343  5779

JSON: /api/v1/satellites/56786 · /tle

For live sub-satellite position, see the globe view (requires WebGL).

§ Visibility from observer

Set your observer location to see the next 7 days of passes ≥ 10°. The values pass through the URL so the page stays shareable.

No JS? Fill the form by hand. The geolocation button needs JavaScript.